Volver al catálogo

COSMOS 2251 DEB

ActivoLEO
NORAD 33984·DEBRIS·🇷🇺 Russia

Lanzado Jun 16, 1993 desde Plesetsk Cosmodrome

Loading…

Próximos Pases (próximas 24 horas)

TLE

ActualizadoSource: Space-Track

Época: Sep 14, 2026, 11:10 UTC

1 33984U 93036FT  26257.46531398  .00002545  00000-0  44243-3 0  9995
2 33984  74.0084 173.6179 0023935 293.2476 188.1032 14.68525487931119

Sigue COSMOS 2251 DEB en tiempo real con AllMySat

Download on the App Store